{"data":{"norad_id":52111,"epoch":"2026-05-25T02:56:33.215424Z","epoch_age_seconds":63859,"freshness":"FRESH","line1":"1 52111U 22029Z   26145.12260666  .00000020  00000+0  19341-4 0  9995","line2":"2 52111  53.2155  95.9980 0001561 106.3640 253.7524 15.08841066232325","mean_motion":15.08841066,"eccentricity":0.0001561,"inclination_deg":53.2155,"raan_deg":95.998,"arg_perigee_deg":106.364,"mean_anomaly_deg":253.7524,"bstar":1.9341e-5,"rev_number":23232,"period_min":95.437487250894,"perigee_km":538.66025001039,"apogee_km":540.82001125057,"semimajor_km":6917.8771306305,"source":"CELESTRAK","updated_at":"2026-05-25T13:38:17.073157Z"}}